[[{"header":{"parameterUnit":"m.s-1","parameterCategory":1,"la1":30.2991,"la2":30.254,"lo1":-89.0895,"lo2":-89.0444,"dy":0.0017,"dx":0.0017,"nx":28,"ny":28,"refTime":"2024-12-23T09:00:00:Z","depth":0,"parameterNumber":2,"parameterNumberName":"U-component_of_WINDS"},"data":[0,0,0,0,0,0,0,0,0,0,0,0,0,0,0,0,0,0,0,0,0,0,0,0,0,0,0,0,0,0,0,0,0,0,0,0,0,0,0,0,0,0,0,0,0,0,0,0,0,0,0,0,0,0,0,0,0,0,-4.7489,-4.7489,0,-4.7504,-4.7504,-4.7504,-4.7334,-4.7329,-4.7325,-4.732,-4.7338,-4.7342,-4.7347,0,0,0,0,0,0,0,0,0,0,0,0,0,-4.7313,-4.7317,-4.7489,-4.7489,-4.7489,-4.7504,-4.7504,-4.7504,-4.7335,-4.7329,-4.7324,-4.7318,-4.7336,-4.7342,-4.7347,0,0,0,0,0,0,0,0,0,0,0,0,0,-4.7365,-4.7319,-4.7488,-4.7406,-4.7399,-4.7504,-4.7504,-4.7504,-4.7336,-4.7329,-4.7322,-4.7316,-4.7334,-4.7341,-4.7348,-4.7533,0,0,-4.737,-4.7373,0,0,0,0,0,0,0,0,-4.7362,-4.7372,-4.7418,-4.7412,-4.7404,-4.741,-4.7448,-4.7514,-4.7338,-4.736,-4.732,-4.7312,-4.7367,-4.7371,-4.739,-4.7534,-4.7534,-4.7371,-4.7375,-4.7378,-4.738,0,0,0,0,0,0,0,-4.7359,-4.737,-4.7494,-4.7419,-4.7411,-4.7369,-4.7368,-4.746,-4.7403,-4.7358,-4.7345,-4.7349,-4.7362,-4.7383,-4.7389,-4.7535,-4.7371,-4.7377,-4.7382,-4.7384,-4.7828,-4.7835,0,0,0,0,0,0,-4.7366,-4.7368,-4.7494,-4.7495,-4.7366,-4.7377,-4.7377,-4.7415,-4.7401,-4.7392,-4.7355,-4.7341,-4.7374,-4.7381,-4.7389,-4.7602,-4.7378,-4.7385,-4.7389,-4.7821,-4.783,-4.7838,0,0,0,0,0,0,-4.7363,-4.7379,-4.7493,-4.7428,-4.744,-4.7388,-4.7432,-4.7419,-4.744,-4.74,-4.7389,-4.7387,-4.7369,-4.7379,-4.7498,-4.76,-4.7388,-4.7395,-4.7812,-4.7824,-4.7834,-4.8032,0,0,0,0,0,0,-4.7359,-4.7379,-4.7449,-4.7431,-4.7444,-4.7603,-4.7438,-4.7424,-4.7452,-4.7434,-4.7427,-4.7419,-4.7364,-4.7488,-4.7505,-4.7607,-4.74,-4.7803,-4.7817,-4.7831,-4.8016,-4.8049,-4.8077,0,0,0,0,0,-4.7353,-4.7505,-4.7453,-4.747,-4.753,-4.7609,-4.7616,-4.755,-4.7462,-4.7531,-4.7505,-4.7419,-4.7587,-4.7501,-4.7519,-4.7625,-4.7796,-4.7813,-4.7829,-4.8003,-4.8042,-4.8076,0,0,0,0,0,0,-4.7537,-4.7501,-4.7444,-4.7594,-4.7606,-4.758,-4.7666,-4.7595,-4.7632,-4.7614,-4.753,-4.753,-4.7663,-4.7655,-4.7561,-4.7801,-4.7676,-4.7697,-4.7801,-4.7839,-4.7868,-4.7867,-4.7406,0,0,0,0,0,-4.7595,-4.7662,-4.7627,-4.7763,-4.7772,-4.7719,-4.775,-4.7698,-4.7707,-4.7712,-4.7694,-4.7707,-4.7761,-4.78,-4.7848,-4.8014,-4.8009,-4.8096,-4.8126,-4.8151,-4.817,-4.8255,-4.8293,-4.7893,-4.7893,-4.7893,0,0,-4.7716,-4.7704,-4.7752,-4.78,-4.7803,-4.7874,-4.7724,-4.7806,-4.7857,-4.7724,-4.7834,-4.7823,-4.7831,-4.7974,-4.8036,-4.7972,-4.8279,-4.8172,-4.8193,-4.8198,-4.8276,-4.8314,-4.8348,-4.7905,-4.7903,-4.7901,0,0,-4.7971,-4.797,-4.8082,-4.8088,-4.8094,-4.8057,-4.8084,-4.8069,-4.8056,-4.8165,-4.8066,-4.8127,-4.8224,-4.8233,-4.8251,-4.8509,-4.843,-4.8527,-4.8685,-4.8769,-4.88,-4.8828,-4.8918,-4.8952,-4.8546,-4.8547,-4.8547,0,-4.8121,-4.8223,-4.8149,-4.8237,-4.826,-4.8142,-4.8255,-4.8264,-4.8286,-4.8305,-4.8233,-4.8351,-4.8349,-4.8491,-4.8554,-4.8573,-4.86,-4.8527,-4.8802,-4.8829,-4.8853,-4.8938,-4.8973,-4.8558,-4.8557,-4.8556,-4.8555,0,-4.8406,-4.8478,-4.8568,-4.8591,-4.8625,-4.8725,-4.8666,-4.8709,-4.8654,-4.8624,-4.8737,-4.8729,-4.8774,-4.8804,-4.8752,-4.8939,-4.8899,-4.8816,-4.8688,-4.8904,-4.8983,-4.9015,-4.8575,-4.8571,-4.8567,-4.8564,0,0,-4.8778,-4.8757,-4.8791,-4.8799,-4.8797,-4.8852,-4.8946,-4.8988,-4.9026,-4.9046,-4.9122,-4.9206,-4.9129,-4.9149,-4.9096,-4.9171,-4.9374,-4.9078,-4.9077,-4.9132,-4.9578,-4.9639,-4.9679,-4.9322,-4.9328,-4.9333,-4.9576,0,-4.9025,-4.9184,-4.912,-4.9285,-4.935,-4.9238,-4.932,-4.9327,-4.9302,-4.9354,-4.9326,-4.9387,-4.9281,-4.9292,-4.9361,-4.9335,-4.9462,-4.9316,-4.9392,-4.9395,-4.9392,-4.972,-4.9785,-5.0016,-4.9607,-4.9612,-4.9616,0,-4.9335,-4.9366,-4.9537,-4.9521,-4.9546,-4.9621,-4.9653,-4.9704,-4.971,-4.9686,-4.9709,-4.9639,-4.973,-4.9603,-4.9727,-4.9629,-4.9656,-4.9648,-4.9655,-4.9659,-4.9518,-4.9731,-5.0088,-5.0122,-4.9664,-4.966,-4.9657,0,-4.9588,-4.9672,-4.9784,-4.9795,-4.9779,-4.9834,-4.9831,-4.9829,-4.9858,-4.9887,-4.9905,-4.9945,-4.9966,-4.9999,-4.9942,-4.9855,-5.0073,-4.9942,-5.0055,-5.0057,-5.0106,-5.0103,-5.0471,-5.0126,-5.0126,-5.0125,-5.0124,0,-4.987,-4.9979,-4.9897,-4.9966,-5.0084,-5.0009,-5.0128,-5.0112,-5.0112,-5.0175,-5.0082,-5.0144,-5.0065,-5.012,-5.0076,-5.0184,-5.0195,-5.0178,-5.0165,-5.0186,-5.0188,-5.0202,-5.0184,-5.0134,-5.0132,-5.013,-5.0129,0,-5.0172,-5.0121,-5.0236,-5.0212,-5.0208,-5.0296,-5.0275,-5.0338,-5.0306,-5.0388,-5.0403,-5.0353,-5.0412,-5.0359,-5.0416,-5.0386,-5.053,-5.0495,-5.0528,-5.0518,-5.0634,-5.0623,-5.1022,-5.107,-5.0696,-5.07,-5.0703,0,-5.0355,-5.0435,-5.0419,-5.0455,-5.0456,-5.0515,-5.0544,-5.0473,-5.0506,-5.0518,-5.0579,-5.063,-5.0667,-5.0767,-5.0736,-5.0779,-5.0743,-5.0879,-5.0748,-5.0766,-5.0743,-5.0738,-5.0745,-5.0906,-5.091,-5.0914,-5.0917,0,-5.0684,-5.0655,-5.0699,-5.0735,-5.0772,-5.0797,-5.0815,-5.085,-5.0776,-5.0819,-5.0877,-5.0906,-5.0963,-5.1015,-5.1047,-5.1043,-5.0969,-5.0958,-5.0987,-5.1008,-5.1024,-5.1015,-5.0599,-5.0949,-5.0946,-5.0944,-5.0942,-5.0941,-5.0931,-5.0997,-5.0995,-5.1047,-5.1053,-5.1071,-5.1128,-5.1103,-5.115,-5.119,-5.1146,-5.1217,-5.1219,-5.1255,-5.126,-5.1315,-5.1257,-5.1299,-5.1309,-5.132,-5.1336,-5.1016,-5.1321,-5.132,-5.1319,-5.1318,-5.1317,0,-5.1254,-5.1247,-5.1296,-5.1323,-5.1364,-5.1289,-5.1304,-5.1344,-5.1407,-5.1415,-5.1453,-5.152,-5.1569,-5.1542,-5.1584,-5.1633,-5.16,-5.1646,-5.1641,-5.1641,-5.1386,-5.1356,-5.1672,-5.1672,-5.1672,-5.1672,-5.1672,-5.1672,-5.1427,-5.1533,-5.1504,-5.1612,-5.1604,-5.1672,-5.1687,-5.1704,-5.1709,-5.1788,-5.1827,-5.1809,-5.1803,-5.1843,-5.1885,-5.1875,-5.1895,-5.1954,-5.1933,-5.1694,-5.1659,-5.1626,-5.1598,-5.1959,-5.196,-5.2182,-5.2185,-5.2186]},{"header":{"parameterUnit":"m.s-1","parameterCategory":1,"la1":30.2991,"la2":30.254,"lo1":-89.0895,"lo2":-89.0444,"dy":0.0017,"dx":0.0017,"nx":28,"ny":28,"refTime":"2024-12-23T09:00:00:Z","depth":0,"parameterNumber":3,"parameterNumberName":"V-component_of_WINDS"},"data":[0,0,0,0,0,0,0,0,0,0,0,0,0,0,0,0,0,0,0,0,0,0,0,0,0,0,0,0,0,0,0,0,0,0,0,0,0,0,0,0,0,0,0,0,0,0,0,0,0,0,0,0,0,0,0,0,0,0,-0.4534,-0.4534,0,-0.4587,-0.4588,-0.4589,-0.4588,-0.4588,-0.4587,-0.4586,-0.4644,-0.4646,-0.4648,0,0,0,0,0,0,0,0,0,0,0,0,0,-0.4431,-0.4433,-0.4534,-0.4534,-0.4535,-0.4587,-0.4588,-0.4589,-0.4588,-0.4588,-0.4587,-0.4586,-0.4643,-0.4646,-0.4648,0,0,0,0,0,0,0,0,0,0,0,0,0,-0.4479,-0.4433,-0.4533,-0.4541,-0.4542,-0.4587,-0.4588,-0.4589,-0.4589,-0.4588,-0.4587,-0.4586,-0.4642,-0.4645,-0.4649,-0.469,0,0,-0.4659,-0.466,0,0,0,0,0,0,0,0,-0.4476,-0.4483,-0.4539,-0.4541,-0.4542,-0.458,-0.4573,-0.4623,-0.4589,-0.4571,-0.4586,-0.4585,-0.4624,-0.4628,-0.4641,-0.4693,-0.4695,-0.4659,-0.4661,-0.4662,-0.4663,0,0,0,0,0,0,0,-0.4473,-0.4481,-0.4555,-0.454,-0.4542,-0.4542,-0.4547,-0.4582,-0.4603,-0.4573,-0.4573,-0.4579,-0.4624,-0.4638,-0.4642,-0.4696,-0.4659,-0.4662,-0.4664,-0.4665,-0.4783,-0.4785,0,0,0,0,0,0,-0.4468,-0.4478,-0.4553,-0.4557,-0.4506,-0.4544,-0.4551,-0.4569,-0.4602,-0.4606,-0.458,-0.4579,-0.4633,-0.4638,-0.4644,-0.4694,-0.4662,-0.4665,-0.4667,-0.4782,-0.4784,-0.4785,0,0,0,0,0,0,-0.4466,-0.4475,-0.4551,-0.4517,-0.4527,-0.4547,-0.4568,-0.4571,-0.4584,-0.4608,-0.4612,-0.459,-0.4632,-0.464,-0.4678,-0.4696,-0.4667,-0.467,-0.4781,-0.4783,-0.4784,-0.4796,0,0,0,0,0,0,-0.4463,-0.4474,-0.449,-0.4518,-0.4529,-0.4584,-0.4569,-0.4572,-0.459,-0.4589,-0.4618,-0.4622,-0.4632,-0.4673,-0.4682,-0.47,-0.4672,-0.4779,-0.4782,-0.4784,-0.4794,-0.4798,-0.4801,0,0,0,0,0,-0.4459,-0.4492,-0.4491,-0.45,-0.4549,-0.4585,-0.4592,-0.4601,-0.4591,-0.4607,-0.4622,-0.4621,-0.4693,-0.4677,-0.4687,-0.4707,-0.4778,-0.4781,-0.4784,-0.4792,-0.4797,-0.4801,0,0,0,0,0,0,-0.4468,-0.4496,-0.4495,-0.4538,-0.4559,-0.4585,-0.4606,-0.4606,-0.4632,-0.463,-0.4641,-0.4648,-0.4686,-0.47,-0.4683,-0.4748,-0.4734,-0.4739,-0.4738,-0.4742,-0.4746,-0.4742,-0.4675,0,0,0,0,0,-0.4475,-0.4501,-0.4524,-0.456,-0.457,-0.4586,-0.4602,-0.4608,-0.463,-0.464,-0.4657,-0.468,-0.4707,-0.4725,-0.4752,-0.4795,-0.4801,-0.4813,-0.4817,-0.4819,-0.4824,-0.4846,-0.4852,-0.4794,-0.4794,-0.4793,0,0,-0.4489,-0.4508,-0.4524,-0.4562,-0.4579,-0.4606,-0.4594,-0.4624,-0.4644,-0.4645,-0.4682,-0.4695,-0.4721,-0.4762,-0.4781,-0.4775,-0.4841,-0.4823,-0.4825,-0.4828,-0.485,-0.4855,-0.486,-0.4795,-0.4795,-0.4795,0,0,-0.453,-0.4547,-0.4577,-0.4594,-0.4619,-0.4629,-0.4636,-0.4662,-0.467,-0.4708,-0.4708,-0.4732,-0.4779,-0.4797,-0.4813,-0.4856,-0.4856,-0.4865,-0.4884,-0.4905,-0.491,-0.4914,-0.493,-0.4935,-0.4868,-0.4868,-0.4868,0,-0.4546,-0.4586,-0.4594,-0.4623,-0.4639,-0.4638,-0.4669,-0.4685,-0.4718,-0.473,-0.4722,-0.4779,-0.4797,-0.4841,-0.4851,-0.4864,-0.4872,-0.4862,-0.4909,-0.4913,-0.4917,-0.4932,-0.4938,-0.4869,-0.4869,-0.4869,-0.4869,0,-0.4603,-0.4631,-0.4653,-0.4683,-0.4702,-0.4732,-0.4743,-0.4761,-0.4764,-0.4774,-0.4811,-0.4832,-0.4862,-0.4872,-0.4876,-0.4916,-0.4912,-0.4906,-0.4893,-0.4923,-0.4937,-0.4943,-0.4871,-0.487,-0.487,-0.487,0,0,-0.4654,-0.4685,-0.4693,-0.4706,-0.4733,-0.4754,-0.4783,-0.4811,-0.4826,-0.4848,-0.4873,-0.4911,-0.4905,-0.4923,-0.4928,-0.4947,-0.4979,-0.4939,-0.494,-0.4946,-0.5025,-0.5029,-0.5036,-0.4979,-0.498,-0.4981,-0.5022,0,-0.4698,-0.4749,-0.4755,-0.4801,-0.4826,-0.4824,-0.485,-0.4868,-0.4878,-0.4901,-0.4912,-0.4939,-0.493,-0.494,-0.4958,-0.4972,-0.4996,-0.4968,-0.5002,-0.5003,-0.4997,-0.5043,-0.5049,-0.5087,-0.5028,-0.5029,-0.503,0,-0.4756,-0.4778,-0.4826,-0.4846,-0.4857,-0.488,-0.4905,-0.4927,-0.4947,-0.4953,-0.497,-0.4973,-0.5002,-0.4986,-0.5027,-0.5009,-0.5022,-0.5031,-0.5032,-0.5037,-0.5019,-0.5049,-0.51,-0.5106,-0.5038,-0.5038,-0.5037,0,-0.4788,-0.4829,-0.4863,-0.4874,-0.4899,-0.4915,-0.4926,-0.4945,-0.4961,-0.4983,-0.4993,-0.5018,-0.5032,-0.5051,-0.506,-0.5048,-0.51,-0.5085,-0.5106,-0.5106,-0.5119,-0.5118,-0.5173,-0.5126,-0.5126,-0.5126,-0.5126,0,-0.4837,-0.4866,-0.4877,-0.4898,-0.493,-0.4936,-0.4968,-0.4979,-0.4995,-0.5018,-0.5018,-0.5039,-0.5049,-0.5072,-0.5078,-0.5111,-0.5117,-0.5123,-0.5125,-0.5123,-0.5123,-0.5134,-0.5131,-0.5127,-0.5127,-0.5127,-0.5126,0,-0.4879,-0.4887,-0.4924,-0.4943,-0.4949,-0.4972,-0.4989,-0.5009,-0.5017,-0.5045,-0.5052,-0.5066,-0.5092,-0.5102,-0.5135,-0.5139,-0.5177,-0.5176,-0.517,-0.517,-0.5191,-0.5189,-0.5255,-0.5264,-0.5211,-0.5211,-0.5212,0,-0.491,-0.4932,-0.4953,-0.4968,-0.4979,-0.5003,-0.5018,-0.5024,-0.504,-0.5063,-0.508,-0.5106,-0.5127,-0.5169,-0.5182,-0.5207,-0.5207,-0.5228,-0.5211,-0.5208,-0.5208,-0.5206,-0.5208,-0.5232,-0.5233,-0.5233,-0.5234,0,-0.4964,-0.4966,-0.4988,-0.501,-0.5028,-0.5047,-0.5065,-0.5076,-0.5085,-0.5103,-0.5129,-0.5145,-0.5177,-0.5203,-0.5227,-0.5239,-0.5238,-0.5238,-0.5245,-0.5244,-0.524,-0.5243,-0.5179,-0.5237,-0.5237,-0.5237,-0.5237,-0.5236,-0.5002,-0.5021,-0.5038,-0.5062,-0.5075,-0.5091,-0.511,-0.512,-0.5141,-0.5167,-0.5169,-0.5197,-0.5215,-0.5248,-0.526,-0.5282,-0.5276,-0.5285,-0.5288,-0.529,-0.5291,-0.5235,-0.5286,-0.5286,-0.5286,-0.5286,-0.5286,0,-0.5056,-0.5066,-0.5087,-0.5111,-0.513,-0.5125,-0.5143,-0.5159,-0.5184,-0.52,-0.522,-0.5249,-0.5273,-0.5287,-0.5311,-0.5326,-0.5326,-0.5332,-0.5331,-0.5334,-0.5295,-0.5288,-0.5331,-0.5331,-0.5331,-0.5331,-0.5331,-0.5331,-0.5086,-0.5118,-0.5122,-0.5159,-0.5169,-0.5196,-0.5207,-0.5221,-0.5234,-0.5267,-0.5286,-0.5294,-0.5309,-0.5334,-0.5355,-0.5359,-0.5368,-0.5375,-0.5377,-0.5341,-0.5337,-0.5332,-0.5325,-0.5376,-0.5376,-0.5414,-0.5415,-0.5415]}]]